Location: Peebles
(55.6412°N, 3.1714°W)
Time: 08:27:23
(UTC+01:00)

Spot 2 - Pass Details

Date: 26 September 2021
Orbit: 569 x 773 km, 98.7° (Epoch: 20 October)

Event Time Altitude Azimuth Distance (km) Brightness Sun altitude
Rises 19:31:05 0° 167° (SSE) 2,842 7.3 -5.1°
Reaches altitude 10° 19:33:17 10° 169° (S) 1,921 6.4 -5.4°
Maximum altitude 19:37:25 73° 254° (WSW) 612 4.3 -6.0°
Drops below altitude 10° 19:41:29 10° 340° (NNW) 1,889 6.9 -6.6°
Sets 19:43:37 0° 343° (NNW) 2,789 7.8 -6.9°
